Location: Butry
(49.0884°N, 2.1992°E)
Time: 23:13:11
(UTC+00:00)

Daily predictions for brighter satellites

Satellite Brightness Start Highest point End
(mag) Time Altitude Azimuth Time Altitude Azimuth Time Altitude Azimuth
CZ-4B R/B 3.8 18:02:03 10° S 18:07:29 67° WSW 18:13:05 10° NNW
Nadezhda 3 Rocket 4.4 18:01:48 10° N 18:07:38 43° ENE 18:13:27 10° SE
Feng Yun 1-1 Rocket 4.2 18:02:39 10° SSE 18:07:59 69° ENE 18:13:24 10° NNW
Cosmos 773 Rocket 4.1 18:04:34 10° NNW 18:09:47 58° ENE 18:14:59 10° SE
In-Cosmos 22 4.1 18:06:56 10° N 18:12:14 70° ENE 18:17:31 10° SSE
CZ-4 R/B 1.4 18:09:46 10° SSE 18:13:30 53° ENE 18:17:17 10° N
KORONAS-FOTON 4.3 18:10:09 10° N 18:13:42 37° ENE 18:17:13 10° SE
Meteor 1-21 4.4 18:09:03 10° NNW 18:14:44 81° W 18:20:20 10° S
Okean 2 3.5 18:13:13 10° N 18:17:19 83° W 18:21:24 10° S
SL-08 RB Rocket 3.6 18:15:15 10° SSE 18:19:41 67° ENE 18:24:09 10° N
BREEZE-M DEB (TANK) 4.1 18:08:34 10° WSW 18:19:44 67° SSE 18:23:11 10° E
SKYMED 2 3.8 18:15:32 10° NNE 18:19:53 79° WNW 18:24:14 10° SSW
Cosmos 1975 Rocket 3.9 18:16:02 10° N 18:20:00 31° ENE 18:23:59 10° SE
Landsat 5 3.7 18:17:09 10° N 18:21:05 73° WNW 18:25:06 10° SSW
SL-27 R/B 4.4 18:22:16 10° NNE 18:23:46 12° NE 18:25:14 10° ENE
Okean-O 2.9 18:24:11 10° SE 18:28:26 48° ENE 18:32:42 10° N
CENTAUR R/B 3.8 18:26:47 10° SE 18:29:59 15° ESE 18:33:27 10° ENE
USA 215 3.4 18:24:27 10° ESE 18:30:57 68° NNE 18:37:29 10° NW
CSL-04 Rocket 4.0 18:26:38 10° SE 18:31:43 45° ENE 18:36:54 10° N
Cosmos 2074 Rocket 4.0 18:27:15 10° S 18:33:30 82° E 18:39:50 10° N
Cosmos 1378 Rocket 4.3 18:30:54 10° NNW 18:35:16 59° W 18:39:37 10° S
Cosmos 1908 Rocket 3.5 18:36:01 10° S 18:40:29 82° E 18:44:59 10° NNE
Lacrosse 4 Rocket 4.1 18:38:56 10° WNW 18:41:03 14° NNW 18:43:11 10° N
HJ-1C 3.3 18:39:09 10° SSE 18:42:25 89° WSW 18:45:43 10° NNW
IRAS Rocket 4.4 18:37:17 10° NNE 18:42:57 81° WNW 18:48:34 10° SSW
Resurs 01 Rocket 3.5 18:43:13 12° ENE 18:44:18 13° NE 18:46:14 10° NNE
Ariane Rocket 4.4 18:42:21 14° E 18:44:52 20° ENE 18:48:32 10° NNE
OBJECT-B 1.8 18:43:19 17° ESE 18:45:01 27° ENE 18:47:45 10° N
Cosmos 1184 Rocket 3.0 18:42:21 10° N 18:45:28 46° ENE 18:48:29 10° SSE
Helios 1A Rocket 4.4 18:44:58 16° E 18:46:31 20° ENE 18:49:29 10° NNE
Cosmos 1346 Rocket 2.7 18:44:32 10° N 18:48:34 70° ENE 18:52:35 10° SSE
ARGOS 4.1 18:44:05 10° S 18:49:18 52° W 18:54:35 10° NNW
Cosmos 2341 Rocket 4.4 18:44:40 10° SSE 18:50:30 41° E 18:56:24 10° NNE
YAOGAN 1 3.2 18:49:43 10° S 18:53:59 60° W 18:58:18 10° NNW
USA 305 3.3 18:50:02 10° WNW 18:54:10 52° NNE 18:56:53 20° E
DMSP B5D2-2 4.0 18:50:31 10° NNE 18:55:50 71° ESE 19:01:06 10° S
H-2A R/B 4.2 18:51:40 10° SSW 18:56:02 29° W 19:00:34 10° NNW
Cosmos 2297 Rocket 4.1 18:52:54 10° N 18:56:14 16° NNE 18:59:02 11° ENE
SJ 16-02 1.5 18:51:59 10° S 18:56:16 51° ESE 19:00:36 10° NNE
USA 186 2.2 18:55:20 24° ESE 18:56:36 36° ENE 18:59:34 10° N
Okean O Rocket 4.1 18:53:01 10° SSW 18:56:38 25° W 19:00:15 10° NW
Cosmos 1538 Rocket 4.0 18:52:34 10° NNW 18:57:58 72° ENE 19:03:19 10° SSE
Cosmos 158 Rocket 3.9 18:53:30 10° NNW 18:58:30 60° ENE 19:02:32 15° SE
Cosmos 1943 Rocket 2.8 18:54:04 10° SW 18:59:35 61° WNW 19:05:11 10° NNE
Meteor 1-12 Rocket 4.3 18:53:45 10° S 18:59:42 66° E 19:05:36 10° NNE
NOSS 3-2 (A) 4.0 18:56:58 10° S 19:01:47 31° ESE 19:07:10 10° NE
Cosmos 1238 Rocket 4.0 18:57:50 10° SSW 19:03:59 72° W 19:09:17 10° N
ISS -3.3 19:02:27 10° WNW 19:05:45 53° N 19:07:19 27° ENE
CZ-2C R/B 3.7 19:01:12 10° N 19:06:33 50° WNW 19:11:55 10° SW
Cosmos 1441 Rocket 3.7 19:04:37 10° N 19:08:09 37° ENE 19:09:11 30° ESE
USA 307 3.2 19:05:45 10° WNW 19:09:56 55° NNE 19:12:02 27° E
Cosmos 1238 4.4 19:07:03 10° N 19:10:02 45° ENE 19:10:36 39° ESE
Geosat 3.9 19:07:44 10° NNE 19:12:47 76° ESE 19:17:48 10° SSW
PSLV R/B 4.0 19:08:47 10° NNE 19:12:53 54° E 19:16:54 10° S
Meteor 2-20 4.5 19:07:17 10° N 19:13:20 59° ENE 19:18:53 12° SSE
Cosmos 962 Rocket 4.4 19:09:25 10° S 19:15:33 68° E 19:21:39 10° NNE
Meteor 1-24 Rocket 3.9 19:11:54 10° N 19:17:04 46° ENE 19:19:55 25° SE
Cosmos 2227 Rocket 4.0 19:15:30 10° N 19:19:03 17° NE 19:21:08 14° ENE
Cosmos 2369 Rocket 2.2 19:13:51 10° SSW 19:19:31 83° WNW 19:25:12 10° NNE
Cosmos 1833 4.2 19:14:00 10° NNW 19:19:39 88° WSW 19:24:01 17° SSE
USA 276 2.0 19:17:04 10° W 19:20:12 78° N 19:20:47 55° E
Cosmos 1674 4.2 19:17:49 10° NNW 19:21:16 37° W 19:24:42 10° SSW
Okean 2 Rocket 3.5 19:19:52 29° SE 19:21:25 39° E 19:25:32 10° NNE
USA 306 3.0 19:18:08 10° WNW 19:22:21 63° NNE 19:23:53 36° E
H-2A R/B 3.0 19:20:22 10° N 19:24:24 47° WNW 19:28:21 10° SW
Lacrosse 5 rocket 3.8 19:21:25 10° WNW 19:24:46 20° SW 19:28:01 10° S
Cosmos 1777 Rocket 4.3 19:21:45 10° SSW 19:26:59 71° WNW 19:32:14 10° NNE
Cosmos 1626 3.1 19:25:39 10° NNW 19:29:13 47° W 19:32:45 10° SSW
USA 308 3.0 19:25:12 10° WNW 19:29:27 64° NNE 19:30:44 42° E
Cosmos 1782 Rocket 4.3 19:27:57 10° SSW 19:32:18 55° WNW 19:36:39 10° N
ATLAS CENTAUR R/B 4.4 19:30:49 10° WNW 19:33:32 15° WSW 19:36:17 10° SW
APEX 3.6 19:29:32 10° NNW 19:34:20 72° WSW 19:35:59 34° SSE
BREEZE-M R/B 2.4 19:31:32 10° W 19:35:08 89° SSW 19:36:12 45° E
Sich 1 Rocket 3.5 19:30:47 10° S 19:35:18 75° E 19:39:49 10° NNE
Cosmos 1656 Rocket 3.6 19:29:56 10° SSW 19:35:31 88° WNW 19:41:03 10° NNE
Cosmos 1726 4.1 19:38:29 17° NNE 19:38:29 17° NNE 19:39:30 10° NNE
Cosmos 1805 3.9 19:33:27 10° SSW 19:37:16 55° WNW 19:41:06 10° N
CZ-4B R/B 2.4 19:35:07 10° N 19:38:04 43° WNW 19:41:03 10° SW
Cosmos 1025 Rocket 3.1 19:33:47 10° NNW 19:38:08 74° W 19:41:03 20° S
SL-14 R/B 3.5 19:34:30 10° NNW 19:38:27 67° W 19:40:47 23° S
SeaSat 1 2.4 19:36:15 33° SE 19:38:32 85° NE 19:43:30 10° NNW
Cosmos 1536 Rocket 3.6 19:35:03 10° N 19:39:25 56° ENE 19:40:02 51° ESE
Cosmos 923 Rocket 3.9 19:34:13 10° NNW 19:39:26 72° ENE 19:41:23 39° SE
Cosmos 1315 Rocket 3.1 19:36:14 10° SSW 19:40:12 67° WNW 19:44:16 10° N
ERBS 4.1 19:38:28 10° NW 19:41:05 21° N 19:41:29 21° NNE
Meteor 2-20 Rocket 4.3 19:35:21 10° N 19:41:29 70° ENE 19:44:56 27° SSE
SJ-6B 3.0 19:41:52 29° S 19:43:53 74° WSW 19:48:00 10° NNW
SL-8 Rocket 3.9 19:40:10 10° S 19:46:26 80° E 19:52:47 10° N
CZ-4 R/B 4.3 19:46:38 10° SW 19:48:50 15° W 19:51:03 10° NW
IGS 5A 3.7 19:50:44 50° NE 19:50:44 50° NE 19:54:26 10° N
Cosmos 1680 Rocket 3.4 19:46:47 10° NNW 19:52:05 71° ENE 19:53:19 51° SE
Cosmos 1470 4.4 19:54:32 23° NNE 19:54:32 23° NNE 19:56:13 10° NNE
MOS 1 4.2 19:50:50 36° SSE 19:53:15 78° ENE 19:58:58 10° NNW
Meteor 2-10 4.0 19:47:44 10° S 19:53:21 75° E 19:58:49 10° NNE
Cosmos 2151 Rocket 3.4 19:55:30 67° SE 19:55:53 72° E 20:00:22 10° NNE
Cosmos 2219 4.4 19:51:34 10° NNW 19:56:13 25° NE 19:56:51 25° NE
EO 1 Delta rocket 4.0 19:54:11 35° S 19:56:24 89° W 20:02:17 10° N
SL-27 R/B 3.0 19:55:53 10° NNW 19:58:44 52° WNW 19:58:44 52° WNW
IRS-1A Rocket 4.3 19:59:35 38° SSE 20:01:59 86° ENE 20:07:57 10° NNW
Cosmos 1300 Rocket 4.2 19:59:44 10° SSW 20:04:02 54° WNW 20:08:20 10° N
Cosmos 1727 Rocket 3.9 19:58:23 10° N 20:04:44 73° E 20:06:40 46° SSE
SPOT 1/Viking Rocket 4.0 20:06:35 45° ENE 20:06:35 45° ENE 20:11:13 10° N
SL-08 R/B 4.5 20:05:56 53° ESE 20:06:29 54° E 20:12:28 10° NNE
Cosmos 2112 Rocket 3.9 20:05:54 10° NNW 20:11:13 86° ENE 20:11:50 70° SE
Meteor 1-22 Rocket 4.2 20:06:11 10° SSW 20:11:48 83° WNW 20:17:44 10° N
Cosmos 1900 4.2 20:09:01 10° NW 20:13:56 78° SW 20:14:14 74° SSW
USA 215 3.7 20:11:36 35° SSE 20:14:07 53° SW 20:20:32 10° WNW
Cosmos 990 Rocket 3.8 20:11:12 10° SSW 20:16:21 85° ESE 20:21:35 10° NNE
OBJECT-B 3.3 20:16:14 17° WSW 20:17:07 19° W 20:19:27 10° NW
Meteor 2-5 Rocket 4.4 20:12:46 10° NNW 20:18:08 50° W 20:21:30 22° SSW
CENTAUR R/B 2.4 20:13:17 10° SSW 20:19:08 75° SE 20:26:17 10° NE
Resurs 01 Rocket 1.9 20:20:48 63° N 20:20:48 63° N 20:24:33 10° NNW
Helios 1A Rocket 3.7 20:21:12 47° WSW 20:21:21 48° W 20:25:19 10° NNW
CZ-3 Stage 3 4.5 20:05:53 10° WSW 20:22:10 25° SSW 20:24:26 23° S
Resurs 1-3 4.2 20:21:57 49° SW 20:22:27 52° W 20:26:46 10° NNW
Ariane Rocket 3.1 20:22:33 60° SSW 20:23:19 71° WSW 20:28:26 10° NNW
SPOT 5 4.3 20:32:01 31° NE 20:32:01 31° NE 20:35:24 10° N
Cosmos 2366 rocket 4.4 20:25:03 10° SSW 20:31:07 61° WNW 20:37:14 10° N
Terra 3.8 20:34:21 19° NNE 20:34:21 19° NNE 20:36:14 10° N
USA 305 4.1 20:30:00 10° WNW 20:32:54 39° W 20:32:54 39° W
SJ 16-02 3.8 20:31:40 10° WSW 20:35:09 22° NW 20:38:38 10° N
Iridium 4 Rocket 4.4 20:34:29 10° N 20:36:53 33° N 20:36:53 33° N
Cosmos 2297 Rocket 2.6 20:36:00 10° NNW 20:40:51 52° NNE 20:40:51 52° NNE
ISS -0.9 20:39:21 10° WNW 20:40:17 17° WNW 20:40:17 17° WNW
Cosmos 1867 3.8 20:37:58 10° NW 20:42:49 64° N 20:42:49 64° N
USA 238 DEB 3.5 20:37:12 10° SW 20:43:43 89° WNW 20:50:42 10° NE
USA 238 3.5 20:37:18 10° SW 20:43:50 90° NW 20:50:48 10° NE
Cosmos 1898 Rocket 4.3 20:50:28 45° N 20:50:28 45° N 20:54:10 10° NNE
NOSS 3-2 (A) 3.8 20:46:28 10° WSW 20:52:07 62° NW 20:58:46 10° NE
Cosmos 2227 Rocket 2.9 20:58:41 10° NNW 21:02:56 47° N 21:02:56 47° N
SPOT 3 Rocket 4.5 21:11:17 44° WNW 21:11:17 44° WNW 21:15:24 10° NNW
Cosmos 2263 Rocket 4.0 21:12:08 10° N 21:15:21 21° NNE 21:15:21 21° NNE
USA 281 3.3 21:09:57 10° NNE 21:15:50 71° N 21:15:50 71° N
Cosmos 2219 4.4 21:35:20 10° NNW 21:38:45 38° NW 21:38:45 38° NW
Terra 4.4 22:13:15 18° NNW 22:13:15 18° NNW 22:14:30 10° NNW
CENTAUR R/B 3.9 22:04:33 10° W 22:10:29 39° NNW 22:17:30 10° NE
Cosmos 2297 Rocket 4.4 22:20:36 10° NW 22:22:39 19° WNW 22:22:39 19° WNW
Cosmos 2263 Rocket 4.5 22:55:32 10° NNW 22:57:01 19° NNW 22:57:01 19° NNW
ATLAS 3B R/B 4.5 23:21:01 24° NE 23:21:01 24° NE 23:23:29 10° NE
Cosmos 2344 4.4 23:30:31 10° NW 23:37:18 61° NW 23:37:18 61° NW
